[TLELIST] Archives

 

Current TLEs

September 4th 2006 PDT

HST 1 20580U 90037B 06247.20330288 .00000409 00000-0 19030-4 0 6907 2 20580 028.4698 254.7807 0003593 300.0604 059.9627 15.00085635696978 ISS (ZARYA) 1 25544U 98067A 06247.19125644 .00014453 00000-0 96427-4 0 6087 2 25544 051.6334 140.4498 0010960 299.5789 198.1068 15.75585754445625 CXO 1 25867U 99040B 06247.08333333 .00000000 00000-0 00000+0 0 9680 2 25867 060.0735 095.4562 5893885 289.0790 359.2677 00.37789271 1210 ____________________________________________________________________ These 2-Line ...Continue Reading

Current TLEs

September 3rd 2006 PDT

HST 1 20580U 90037B 06244.40895254 +.00000375 +00000-0 +16330-4 0 07009 2 20580 028.4699 272.9949 0003763 269.0362 090.9794 15.00084024696557 ISS (ZARYA) 1 25544U 98067A 06246.36967593 .00013718 00000-0 91856-4 0 6053 2 25544 051.6334 144.6789 0010910 296.2718 218.2045 15.75558641445494 CXO 1 25867U 99040B 06247.08333333 .00000000 00000-0 00000+0 0 9680 2 25867 060.0735 095.4562 5893885 289.0790 359.2677 00.37789271 1210 ____________________________________________________________________ These 2-Line ...Continue Reading

Current TLEs

September 2nd 2006 PDT

HST 1 20580U 90037B 06244.20935603 .00000385 00000-0 17165-4 0 6883 2 20580 028.4701 274.2959 0003712 266.2551 093.7620 15.00084137696521 ISS (ZARYA) 1 25544U 98067A 06245.16570701 .00012428 00000-0 83766-4 0 5991 2 25544 051.6321 150.8771 0010963 291.6264 229.3743 15.75519305445305 CXO 1 25867U 99040B 06244.45833333 .00000000 00000-0 00000+0 0 9672 2 25867 060.0699 095.4672 5887362 289.1799 001.8557 00.37791551 1215 ____________________________________________________________________ These 2-Line ...Continue Reading

Current TLEs

September 1st 2006 PDT

HST 1 20580U 90037B 06243.47750239 +.00000338 +00000-0 +13462-4 0 07112 2 20580 028.4701 279.0661 0003719 257.9337 102.0834 15.00083573696412 ISS (ZARYA) 1 25544U 98067A 06244.14845706 .00012401 00000-0 83691-4 0 5930 2 25544 051.6315 156.1131 0010991 287.6104 219.8286 15.75492346445149 CXO 1 25867U 99040B 06244.45833333 .00000000 00000-0 00000+0 0 9672 2 25867 060.0699 095.4672 5887362 289.1799 001.8557 00.37791551 1215 ____________________________________________________________________ These 2-Line ...Continue Reading

Current TLEs

August 31st 2006 PDT

HST 1 20580U 90037B 06242.54605249 .00000389 00000-0 17467-4 0 6876 2 20580 028.4700 285.1386 0003658 249.2177 110.8024 15.00083480696270 ISS (ZARYA) 1 25544U 98067A 06243.38865741 .00013130 00000-0 88411-4 0 5885 2 25544 051.6320 160.0240 0011093 284.8289 230.3234 15.75475682445029 CXO 1 25867U 99040B 06244.45833333 .00000000 00000-0 00000+0 0 9672 2 25867 060.0699 095.4672 5887362 289.1799 001.8557 00.37791551 1215 ____________________________________________________________________ These 2-Line ...Continue Reading

Current TLEs

August 30th 2006 PDT

HST 1 20580U 90037B 06240.48355544 +.00000356 +00000-0 +14829-4 0 06993 2 20580 028.4703 298.5834 0003833 227.8674 132.1595 15.00082372695962 ISS (ZARYA) 1 25544U 98067A 06242.11543316 .00012426 00000-0 84038-4 0 5839 2 25544 051.6314 166.5770 0011140 280.3181 208.6704 15.75438432444825 CXO 1 25867U 99040B 06240.91666667 .00000000 00000-0 00000+0 0 9662 2 25867 060.0368 095.5103 5885397 289.2673 239.6443 00.37814555 1211 ____________________________________________________________________ These 2-Line ...Continue Reading

Current TLEs

August 29th 2006 PDT

HST 1 20580U 90037B 06241.21540926 .00000425 00000-0 20294-4 0 6861 2 20580 028.4703 293.8140 0003871 235.7003 124.3252 15.00083093696073 ISS (ZARYA) 1 25544U 98067A 06241.16594013 .00011138 00000-0 75874-4 0 5784 2 25544 051.6309 171.4621 0011165 276.2667 223.9881 15.75408519444671 CXO 1 25867U 99040B 06240.91666667 .00000000 00000-0 00000+0 0 9662 2 25867 060.0368 095.5103 5885397 289.2673 239.6443 00.37814555 1211 ____________________________________________________________________ These 2-Line ...Continue Reading

Current TLEs

August 28th 2006 PDT

HST 1 20580U 90037B 06239.61863692 .00000384 00000-0 17034-4 0 6851 2 20580 028.4703 304.2208 0003864 218.5968 141.4348 15.00082175695835 ISS (ZARYA) 1 25544U 98067A 06239.95849418 +.00009973 +00000-0 +68497-4 0 05721 2 25544 051.6311 177.6764 0011039 270.8539 216.8308 15.75375652444483 CXO 1 25867U 99040B 06240.91666667 .00000000 00000-0 00000+0 0 9662 2 25867 060.0368 095.5103 5885397 289.2673 239.6443 00.37814555 1211 ____________________________________________________________________ These 2-Line ...Continue Reading

Current TLEs

August 27th 2006 PDT

HST 1 20580U 90037B 06238.55412174 .00000435 00000-0 21015-4 0 6848 2 20580 028.4704 311.1597 0003930 208.0836 151.9540 15.00081913695677 ISS (ZARYA) 1 25544U 98067A 06239.44703902 .00010427 00000-0 71439-4 0 5694 2 25544 051.6319 180.3092 0011082 268.9535 196.1431 15.75366761444408 CXO 1 25867U 99040B 06239.16666667 .00000000 00000-0 00000+0 0 9656 2 25867 060.0287 095.5780 5883864 289.2702 001.3646 00.37803662 1218 ____________________________________________________________________ These 2-Line ...Continue Reading

Current TLEs

August 26th 2006 PDT

HST 1 20580U 90037B 06236.62468767 .00000492 00000-0 25480-4 0 6835 2 20580 028.4705 323.7360 0004117 189.7606 170.2906 15.00081011695380 ISS (ZARYA) 1 25544U 98067A 06238.43115860 .00010140 00000-0 69661-4 0 5621 2 25544 051.6316 185.5386 0011106 264.7299 195.1301 15.75343448444240 CXO 1 25867U 99040B 06239.16666667 .00000000 00000-0 00000+0 0 9656 2 25867 060.0287 095.5780 5883864 289.2702 001.3646 00.37803662 1218 ____________________________________________________________________ These 2-Line ...Continue Reading
  • This mailing list is a public mailing list - anyone may join or leave, at any time.
  • This mailing list is announce-only.

International Space Station (ISS) / Hubble Space Telescope (HST) / Chandra X-Ray Observatory Orbital Data via EMAIL

Privacy Policy:

Private list